Find Starlink 11503

NORAD ID: 63142 Int'l Des: 2025-043 Owner: SPXS Country: US Constellation: starlink operational
LEOCIRCULAR

实时位置

正在加载3D地球...

关于 Starlink 11503

正在加载描述...

即将过境

Passes for default location (London). Set your location on the main map for personalized predictions.

高度历史

Loading altitude history...

两行轨道根数

1 63142U 25043L 26125.76757839 .00218084 00000-0 16557-2 0 9997
2 63142 42.9993 266.2502 0001384 249.2691 110.8028 15.70885668 68273
Epoch: May 5, 2026 • Age: 6 hours

当前状态

高度 360.0 km
速度 7.70 km/s
星下点 42.97°N, 110.9°E
发射日期 Mar 3, 2025
运行时间 1.1 years
类型 internet

技术详情

分类 Payload
质量 960.00 kg
干质量 910.00 kg
总质量 960.00 kg
长度 0.30 m
直径 4.10 m
跨度 29.00 m
形状 Box + pan
制造商 SPXS
平台类型 Starlink V2MD
阶段状态 In Orbit
所有者/国家 SPXS/US

Most Searched